Flag for China Weather past 2 weeks in Lanchow, Gansu, China

Now
14 °F

Clear.


Feels Like: 5 °F
Forecast: 7 / 34 °F
Wind: 6 mph from North

Location: Lanzhou / Zhongchuan

Current Time: Dec 26, 2014 at 11:49:46 PM

Latest Report: Dec 26, 2014 at 11:00 PM


Visibility: 3 mi

Pressure: 30.33 "Hg

Humidity: 73%

Dew point: 7 °F

Location of LanchowLocation

Historic Weather in Lanchow — Graph

°F

Lanchow temperature yesterday

Maximum temperature yesterday: 34 °F (at 2:00 PM)
Minimum temperature yesterday: 5 °F (at 8:00 AM)
Average temperature yesterday: 18 °F

Past Weeks' High & Low Weather Summary

 TemperatureHumidityPressure
High36 °F (Dec 23, 4:00 PM)79% (Dec 12, 4:00 AM)30.60 "Hg (Dec 12, 4:00 AM)
Low-4 °F (Dec 21, 8:00 AM)18% (Dec 14, 4:00 PM)30.01 "Hg (Dec 22, 2:00 PM)
Average15 °F53%30.26 "Hg
* Reported Dec 11 10:00 PM — Dec 26 10:00 PM, Lanchow, Weather by CustomWeather, © 2014

Note: Actual official high and low records may vary slightly from our data, if they occured in-between our weather recording intervals... More about our weather records

Advertising

Lanchow weather history for previous 24 hours

 ConditionsComfort  
Time TempWeatherWind HumidityBarometerVisibility
10:00 PM
Dec 26
14 °FClear.6 mph67%30.30 "Hg3 mi
9:00 PM16 °FClear.3 mph67%30.30 "Hg2 mi
8:00 PM18 °FClear.1 mph62%30.27 "Hg2 mi
7:00 PM19 °FClear.3 mph53%30.24 "Hg2 mi
6:00 PM28 °FClear.No wind47%30.18 "Hg3 mi
5:00 PM34 °FClear.3 mph38%30.15 "Hg5 mi
4:00 PM34 °FClear.3 mph38%30.15 "Hg5 mi
3:00 PM34 °FPassing clouds.3 mph35%30.12 "HgN/A
2:00 PM34 °FPassing clouds.3 mph38%30.12 "HgN/A
1:00 PM32 °FClear.3 mph44%30.15 "Hg5 mi
12:00 PM30 °FClear.6 mph43%30.18 "Hg3 mi
11:00 AM27 °FHaze.1 mph50%30.18 "Hg3 mi
10:00 AM21 °FHaze.6 mph58%30.18 "Hg3 mi
9:00 AM10 °FClear.8 mph72%30.18 "Hg4 mi
8:00 AM7 °FClear.8 mph78%30.15 "Hg4 mi
7:00 AM9 °FClear.6 mph72%30.15 "Hg4 mi
6:00 AM9 °FClear.6 mph72%30.12 "Hg4 mi
5:00 AM9 °FClear.6 mph72%30.12 "Hg4 mi
4:00 AM10 °FClear.6 mph72%30.12 "Hg4 mi
3:00 AM12 °FClear.3 mph73%30.12 "Hg3 mi
2:00 AM12 °FClear.6 mph73%30.15 "Hg3 mi
1:00 AM14 °FClear.No wind62%30.15 "Hg2 mi
12:00 AM16 °FClear.6 mph62%30.15 "Hg2 mi
11:00 PM
Dec 25
18 °FClear.6 mph62%30.15 "Hg2 mi
Weather by CustomWeather, © 2014

See weather overviewHow to use our weather pages